Theta_e
308 308 308 308 308 308 308 307 308 308 308 308 308 308 308 309 309 310 310 311 311 310 311 311 311 311 311 311 311 311 311 312 312 312 313 314 314 314 314 313 314 314 314 314 314 314 314 315 315 314 317 316 316 319 319 316 315 319 321 318 316 316 316 317 318 319 319 319 318 318 317 318 318 318 317 316 316 317 317 315 314 314 313 313 313 313 313 313
309 309 308 308 308 308 308 308 308 308 308 308 308 308 309 309 309 310 310 310 310 310 311 310 311 311 310 311 311 311 311 311 312 314 314 314 314 314 314 314 315 315 315 315 315 315 315 316 315 315 317 317 317 318 320 319 317 320 320 317 317 317 316 318 319 319 319 319 318 318 317 317 317 317 316 316 317 318 317 316 314 314 314 313 312 312 312 312
311 310 310 309 309 308 309 309 309 309 309 309 309 309 309 309 309 309 310 310 310 310 310 310 310 311 311 311 311 311 311 311 314 316 314 314 314 314 314 315 315 315 315 315 315 315 315 315 315 315 316 316 317 317 319 319 318 320 320 319 318 317 316 317 319 318 318 318 318 318 316 316 317 316 316 316 317 318 317 316 315 316 315 313 311 311 311 311
312 312 311 311 310 310 309 309 309 309 309 309 309 309 309 309 309 309 310 310 310 310 310 310 310 310 311 310 310 311 311 313 317 316 314 314 314 314 315 315 314 314 314 315 315 315 314 315 315 315 316 317 317 317 319 318 318 320 319 319 318 316 317 316 317 318 317 317 317 317 316 316 317 315 316 316 317 317 316 314 313 314 313 311 311 310 311 311
310 311 311 311 311 311 310 310 309 309 309 309 309 309 309 309 309 310 310 310 310 310 310 310 310 311 310 310 311 311 312 315 316 314 313 314 314 314 314 314 314 314 314 314 315 315 314 315 315 315 316 317 317 317 318 317 317 319 318 319 318 317 318 317 317 317 316 316 316 317 316 316 316 315 316 316 317 317 314 311 311 311 310 310 310 310 311 311
309 309 309 310 311 311 311 311 311 310 309 309 309 309 309 309 309 309 309 310 310 310 310 310 310 310 310 310 310 310 313 316 315 313 314 313 314 314 314 314 314 314 314 315 316 315 315 316 316 316 316 317 317 317 317 317 317 319 318 318 318 317 318 317 317 316 315 315 316 316 316 315 316 316 316 315 316 314 311 310 310 309 309 309 310 310 311 311
308 308 308 309 309 310 310 311 311 311 310 310 309 309 309 309 309 309 309 310 310 310 310 310 310 310 310 310 310 312 315 316 314 313 313 313 314 313 313 314 314 314 315 315 316 316 315 316 316 316 317 317 317 317 317 317 317 318 319 318 318 317 317 317 316 315 314 315 316 315 315 315 316 316 315 314 313 311 310 309 309 309 309 309 310 310 311 311
308 308 308 308 308 309 309 310 311 311 311 311 310 310 310 309 310 309 309 309 310 310 310 310 309 310 310 309 312 316 317 316 314 313 313 313 313 313 314 314 314 315 315 316 316 316 315 315 316 316 317 318 317 317 316 317 318 318 318 318 317 316 316 316 316 315 315 315 315 314 314 316 316 315 314 314 311 310 310 309 309 309 309 309 309 310 311 311
308 308 308 308 308 308 308 308 309 310 311 311 311 310 310 310 310 309 309 310 310 310 310 310 309 310 310 310 313 316 316 317 314 314 315 315 314 314 314 314 315 315 316 317 316 315 315 316 316 316 317 317 316 317 316 316 318 317 317 317 317 317 316 316 316 316 315 315 315 314 315 316 314 314 313 312 310 309 309 309 309 309 309 309 309 310 310 311
308 308 308 308 308 308 308 308 308 309 310 311 311 311 311 310 310 310 310 310 310 310 310 309 309 309 310 312 315 315 317 317 315 315 316 317 317 317 317 316 316 317 317 318 317 315 315 316 316 316 317 317 316 317 316 316 316 316 317 316 317 317 317 316 316 317 316 315 315 314 317 316 313 313 313 311 309 309 309 309 309 309 309 309 309 310 310 310
308 308 308 308 308 308 308 307 307 308 308 309 310 310 311 310 310 310 310 310 310 310 310 309 309 310 311 313 315 316 318 316 315 316 316 318 319 319 320 319 318 319 318 318 318 316 315 315 315 316 317 317 317 316 316 316 315 315 316 316 317 317 317 317 317 317 315 315 314 314 316 315 312 313 314 311 308 309 310 310 309 309 309 309 309 309 309 310
308 308 307 307 308 308 307 307 307 307 307 308 308 309 310 310 310 310 310 309 309 309 309 309 309 311 313 314 315 316 316 315 315 315 316 317 319 320 320 319 320 320 319 318 317 316 315 314 315 317 317 317 318 317 316 314 315 315 315 316 318 318 318 318 317 315 315 315 313 314 315 314 313 313 313 310 309 309 310 310 309 309 308 308 309 308 309 309
307 307 307 307 307 307 307 307 307 307 307 307 307 308 308 309 309 309 309 308 309 309 309 309 311 313 314 315 316 315 315 315 315 315 316 317 318 319 319 319 319 319 319 317 316 316 315 315 316 317 316 318 318 316 315 314 315 316 316 316 318 319 319 318 316 314 315 314 313 314 316 316 315 313 311 309 309 310 311 311 310 309 308 308 308 308 309 308
307 307 307 307 307 307 307 307 307 307 306 306 306 307 307 307 308 308 308 308 308 309 311 312 314 315 314 316 316 315 315 316 316 317 317 317 317 318 318 318 317 317 317 317 316 316 316 317 316 317 316 317 317 315 315 316 315 316 317 317 317 319 318 316 316 315 315 313 313 314 316 317 315 313 311 310 309 311 312 312 310 309 308 308 308 308 308 308
307 307 307 307 307 307 306 307 307 306 307 306 306 306 306 307 307 307 308 308 310 312 313 314 315 315 316 317 316 315 316 316 317 317 317 317 317 317 317 317 316 316 316 316 316 316 316 316 316 317 316 315 315 315 317 317 317 317 317 318 319 319 318 317 316 316 316 314 313 314 316 318 315 313 312 310 309 311 313 312 310 309 308 307 307 307 307 308
307 307 307 307 307 307 307 307 307 307 307 307 307 307 307 307 307 308 309 311 313 315 315 315 315 315 317 318 316 316 316 317 317 317 317 317 316 317 316 316 316 315 315 315 316 316 316 316 316 317 316 315 316 317 318 319 318 319 318 318 320 319 319 318 315 315 316 314 314 315 316 318 315 313 311 310 310 310 312 312 310 309 308 307 307 307 307 307
307 307 307 307 307 307 307 307 307 307 307 307 307 307 308 308 310 311 313 314 316 316 315 316 316 316 317 317 316 316 317 317 317 317 317 317 316 316 315 315 315 315 315 315 315 315 315 316 315 316 316 316 317 318 318 318 319 319 319 319 319 319 319 318 316 315 315 315 316 316 316 317 316 313 311 310 311 311 312 312 310 309 308 307 307 306 306 306
308 308 308 308 308 308 308 307 307 307 307 307 308 310 310 311 312 313 315 315 316 315 315 315 316 316 317 317 317 317 317 317 317 317 317 316 315 315 315 315 315 315 315 315 316 315 316 316 316 316 317 317 317 318 318 319 319 319 320 319 319 319 318 318 317 316 315 315 316 317 317 317 316 313 312 311 310 311 313 311 310 309 308 307 307 306 306 306
308 308 308 308 308 308 308 308 307 307 307 308 310 311 312 313 314 315 315 315 316 316 316 316 316 316 317 318 317 317 317 317 317 316 316 316 315 314 314 315 315 316 316 316 316 316 317 317 316 317 318 318 317 318 319 320 320 319 319 319 319 318 318 319 318 315 316 316 317 318 318 319 318 314 312 311 310 311 312 310 309 308 307 307 306 306 306 305
310 308 308 308 308 308 308 308 307 307 308 310 311 313 314 316 317 317 316 316 316 316 318 319 317 317 318 318 317 317 317 316 316 316 316 316 315 315 315 315 316 316 317 317 317 316 316 318 318 318 319 319 319 318 319 319 319 318 319 318 318 318 318 319 317 314 315 317 318 319 318 319 319 316 313 311 310 311 311 310 309 309 307 307 306 306 305 304
315 312 309 308 308 308 308 307 307 307 308 311 312 314 317 320 319 318 318 318 317 316 317 319 318 318 318 317 317 317 316 316 316 316 316 315 315 315 316 315 316 316 317 318 318 316 315 317 319 319 319 319 319 319 318 318 318 318 317 317 318 318 318 319 317 314 314 316 317 319 318 318 318 318 314 311 311 311 311 311 310 309 307 307 306 306 305 304
317 316 312 309 308 308 307 307 308 308 309 311 312 313 317 319 317 317 317 318 319 318 317 318 318 318 317 317 317 317 317 316 316 316 316 315 315 316 317 316 316 317 317 317 317 316 316 317 318 319 319 319 318 318 318 318 317 317 317 317 318 318 319 319 316 313 313 315 317 318 318 317 318 317 314 312 312 312 311 311 310 309 307 306 306 305 304 304
317 317 315 311 308 308 308 308 309 309 310 311 313 313 315 317 316 316 316 318 319 320 318 318 318 318 317 317 317 316 316 317 317 317 316 315 316 317 317 316 316 317 317 316 317 318 318 318 318 319 319 317 317 316 316 317 317 317 318 317 318 319 320 319 316 314 313 314 316 317 316 317 318 317 313 311 312 310 308 307 307 307 307 306 305 305 304 304
318 317 317 314 311 310 309 311 313 313 311 311 313 313 315 317 317 317 318 319 319 320 320 319 318 318 317 317 317 316 316 317 318 318 316 316 316 316 317 316 317 318 317 316 317 318 319 318 318 318 317 317 317 316 316 316 317 318 318 318 318 319 319 320 317 315 314 314 314 315 317 319 319 319 314 310 309 308 306 305 305 305 305 305 304 303 303 304
318 317 317 316 314 313 312 314 315 315 313 313 313 313 315 317 318 317 317 318 319 320 320 319 318 318 318 317 317 316 316 317 317 318 317 316 316 316 316 316 317 317 317 317 316 317 318 317 316 317 316 316 317 316 316 317 317 318 319 318 318 319 319 320 319 317 318 319 316 315 321 322 320 321 318 309 307 307 306 306 306 305 304 303 303 303 303 303
318 317 317 317 316 315 315 316 316 315 314 314 314 314 315 317 318 316 316 317 319 319 319 319 318 318 318 317 317 316 316 317 317 318 317 316 316 316 315 315 316 316 317 317 316 317 317 315 315 317 316 317 317 317 317 317 317 319 320 318 318 318 319 320 319 318 321 323 316 314 320 322 320 320 318 311 309 309 306 306 307 305 304 303 303 303 303 303
319 318 318 317 317 316 316 317 317 316 316 316 316 315 314 316 317 316 316 318 320 320 320 319 318 318 318 317 316 316 317 317 316 316 316 316 315 315 315 315 315 315 316 317 318 318 316 314 316 317 317 318 318 318 318 317 318 320 319 318 318 318 319 320 319 319 320 321 316 313 317 320 319 319 316 312 311 310 307 307 307 306 304 304 304 303 303 303
320 319 319 317 316 316 317 317 317 317 317 317 317 315 314 315 316 316 317 320 322 321 320 317 316 316 317 316 316 316 316 316 317 316 315 315 315 314 315 316 316 315 315 317 318 319 317 316 317 317 317 319 318 318 319 317 319 319 316 316 317 318 319 319 319 319 318 319 318 316 316 318 319 318 314 312 313 313 311 308 307 307 305 304 304 303 303 303
320 320 320 319 318 317 317 317 318 317 317 316 316 315 313 315 316 316 319 322 323 321 319 317 315 315 316 316 316 316 315 314 315 314 313 314 314 314 314 315 317 316 315 316 318 319 316 314 315 316 317 318 317 316 317 318 318 316 314 315 316 316 317 317 318 318 317 318 319 319 317 318 320 318 315 313 314 315 314 311 309 307 305 304 304 303 302 302
321 320 320 320 319 318 317 318 318 317 317 316 315 314 314 316 316 318 321 323 322 320 316 315 316 316 316 316 316 315 315 314 312 312 313 313 313 313 314 315 316 316 315 315 317 316 312 310 312 315 317 316 314 311 312 315 316 314 315 316 316 315 315 316 316 316 318 319 319 319 318 318 320 320 318 317 315 316 316 312 309 308 306 304 304 303 302 302
323 321 320 320 320 319 318 318 318 317 317 315 315 313 315 318 318 322 324 321 320 319 315 315 316 316 316 317 317 315 314 314 312 312 313 312 312 313 314 315 315 316 316 316 317 316 313 312 314 314 313 314 313 312 311 312 314 315 317 317 317 317 315 316 316 316 319 322 319 317 317 319 319 320 318 317 315 315 315 312 310 307 306 305 304 303 302 302
323 322 320 319 320 320 319 319 318 318 316 314 315 315 317 319 319 322 323 319 319 320 318 316 316 316 316 318 319 316 314 314 313 313 313 313 313 313 314 316 316 317 319 318 318 318 316 315 315 313 311 313 316 315 312 311 313 315 317 317 319 321 319 319 319 317 320 320 315 313 316 319 319 318 318 316 313 313 313 313 311 308 306 305 304 303 302 302
324 323 322 320 319 319 320 319 318 318 316 314 315 317 318 319 320 321 322 321 321 319 318 317 316 316 317 319 320 316 315 315 313 314 315 314 315 315 315 316 316 319 322 320 319 319 319 318 315 314 312 312 316 317 315 313 313 315 317 318 320 323 323 323 322 320 321 318 311 311 315 317 317 317 316 313 310 309 309 311 310 308 306 305 304 302 301 301
323 323 322 320 319 319 320 320 319 319 316 314 316 318 318 319 321 321 320 321 319 316 316 316 316 318 318 319 319 317 316 317 314 314 316 315 316 316 316 316 316 318 321 321 321 321 322 322 318 316 315 313 314 318 319 317 314 315 317 318 320 323 325 325 323 322 322 316 311 312 315 318 318 315 310 307 306 306 306 308 309 307 306 305 303 302 301 301
322 322 321 321 320 320 319 319 319 319 317 315 317 318 318 319 321 321 321 320 318 315 314 316 317 319 320 319 317 316 318 317 314 314 315 316 317 317 318 317 316 318 320 321 322 321 323 324 319 315 315 314 315 317 318 318 316 315 316 318 319 320 321 320 318 317 317 316 314 313 315 317 315 310 306 306 306 305 305 306 307 307 306 304 303 302 302 301
322 322 321 321 321 321 320 319 319 319 317 315 318 319 318 319 320 320 320 319 318 316 315 316 318 319 321 320 317 316 317 316 315 315 316 317 317 318 319 318 317 317 319 321 322 321 322 322 316 313 313 312 313 316 316 317 318 316 316 317 317 316 317 317 316 313 313 318 318 315 315 316 314 311 307 306 306 305 304 306 307 306 305 304 303 302 301 301
321 321 321 321 321 321 321 319 318 319 316 315 318 319 318 318 318 318 318 318 318 317 316 318 319 320 321 321 319 316 316 316 316 316 317 317 318 318 318 319 318 317 318 320 321 321 322 320 314 313 314 311 309 312 314 314 315 315 316 317 315 314 315 316 318 317 316 319 320 317 316 317 317 316 310 307 308 306 304 305 306 306 305 304 304 302 302 301
320 320 320 321 321 321 320 320 319 318 316 315 317 318 318 318 317 316 318 318 318 317 317 319 320 320 321 322 321 317 316 318 316 316 318 318 318 319 318 318 319 317 317 319 319 319 320 320 315 312 313 311 308 312 314 312 312 313 314 315 315 316 317 316 318 319 320 321 320 318 318 317 318 318 313 310 310 308 306 305 305 305 305 304 304 303 302 301
319 319 319 320 321 320 320 320 318 317 315 315 315 316 317 318 317 317 317 317 318 317 317 319 319 319 320 321 321 318 316 318 317 317 319 318 318 319 318 318 318 318 317 317 317 317 318 321 318 311 311 311 309 312 315 313 311 311 312 314 315 316 317 317 318 318 319 321 321 320 318 317 318 318 316 315 313 310 308 305 304 305 305 304 304 303 302 301
317 318 318 319 320 320 320 319 317 316 315 315 315 315 316 317 317 317 318 318 318 318 318 319 319 319 320 320 321 319 317 318 318 317 319 319 318 318 317 317 318 317 317 316 317 317 316 318 319 312 309 311 312 313 315 315 313 311 312 314 315 314 314 315 317 317 317 319 321 321 320 318 317 316 317 317 315 311 309 307 306 306 305 304 304 303 302 301
318 317 318 318 319 319 319 317 315 316 315 314 314 314 315 316 317 318 318 318 318 318 318 319 319 320 320 319 320 319 318 318 318 318 319 318 318 319 318 317 318 317 316 316 316 317 316 317 318 314 310 312 314 313 313 314 314 313 313 314 315 315 315 316 318 317 315 317 319 319 321 320 316 314 314 315 315 313 310 308 308 307 306 305 304 304 303 302
317 318 318 318 318 319 317 316 315 316 314 312 313 314 315 316 317 318 319 317 317 318 318 318 318 319 321 320 320 320 319 318 318 318 319 319 319 319 318 317 317 316 315 315 316 316 316 316 317 316 313 313 313 311 310 310 311 313 314 314 315 315 315 318 319 317 315 315 316 316 318 319 314 310 310 310 310 310 310 310 309 307 306 305 304 304 303 302
316 317 317 317 317 318 317 316 316 315 313 312 312 313 314 315 316 317 318 318 317 318 319 318 318 319 320 320 319 319 319 318 319 318 318 319 319 317 316 316 316 315 315 315 315 314 314 316 317 316 315 313 312 310 310 309 310 312 313 313 315 316 316 317 317 316 316 316 316 315 318 319 312 307 307 307 305 306 307 309 309 308 307 305 304 304 303 302
315 316 316 316 317 317 317 316 316 314 312 312 312 313 314 315 315 316 317 318 318 318 318 318 319 319 319 319 319 318 318 319 320 319 318 319 318 313 312 315 315 315 315 315 315 315 315 317 318 318 317 316 315 314 313 312 310 311 313 313 314 316 317 316 314 314 316 318 318 317 319 318 311 306 306 305 305 305 306 307 308 308 307 305 304 304 303 303
315 315 315 316 317 316 316 317 315 313 312 312 312 313 314 314 315 316 316 317 318 318 318 318 319 319 318 318 319 319 319 319 320 320 318 318 316 311 309 312 314 314 314 313 314 315 316 317 318 319 320 321 320 319 317 315 312 311 312 314 314 315 316 315 314 315 317 319 319 318 319 317 311 307 307 307 306 306 305 305 306 307 306 305 304 304 303 303
315 314 314 314 315 314 314 314 314 313 312 312 312 313 313 314 315 315 315 316 317 318 319 318 318 319 319 319 319 319 319 318 319 319 318 316 315 310 307 308 310 311 311 310 312 315 315 316 317 319 321 321 321 321 319 316 313 313 313 314 314 314 315 315 315 316 317 318 318 318 318 317 312 310 309 309 307 307 307 305 304 304 304 304 304 303 303 303
314 314 314 314 314 313 312 312 313 313 313 312 313 313 313 313 314 315 315 315 316 317 318 318 317 318 319 318 319 319 319 318 317 317 317 316 314 310 307 307 308 308 309 309 310 314 315 315 316 318 319 319 319 319 318 317 316 315 315 314 314 314 315 316 316 316 317 317 318 318 318 318 315 312 311 311 309 309 309 307 305 304 303 303 303 303 302 302
313 313 313 314 314 314 313 312 312 313 314 312 312 313 313 313 314 315 315 314 315 316 317 317 317 318 318 318 319 320 319 319 317 316 317 316 315 311 309 308 308 307 309 310 310 312 315 315 316 318 318 318 317 317 318 318 317 316 316 315 314 314 315 315 315 316 317 317 318 318 318 318 316 313 311 312 311 311 310 309 306 304 303 302 301 301 301 301
311 312 311 311 313 313 312 312 312 313 314 313 312 312 313 313 313 314 315 315 315 315 316 316 316 317 318 318 319 319 319 319 318 316 316 315 314 313 312 312 310 306 309 312 311 311 314 314 316 317 317 317 316 316 317 318 317 317 317 315 314 314 314 314 314 315 316 317 317 317 317 317 315 313 312 312 312 311 310 308 306 304 303 302 301 301 301 301
309 311 310 309 310 310 310 311 312 313 313 312 312 312 312 313 313 314 315 315 315 315 315 316 316 316 317 318 318 318 317 318 318 317 316 315 314 313 314 315 313 308 308 312 312 311 312 314 315 315 315 316 315 314 315 315 316 317 317 316 315 314 314 314 314 314 315 316 315 315 315 315 315 314 312 310 310 309 308 307 306 305 304 302 301 301 302 302
308 309 310 309 309 309 309 310 311 312 311 310 311 312 312 313 314 315 314 312 313 315 315 316 316 316 316 317 317 318 316 316 316 314 314 314 313 313 313 313 313 310 309 310 312 311 311 313 314 313 315 317 315 313 314 313 313 315 317 317 316 315 314 313 313 313 314 314 315 315 315 315 314 314 312 309 308 308 308 307 306 305 304 303 303 304 304 305
307 307 308 308 310 309 309 309 310 311 311 309 310 311 311 311 312 314 314 310 309 311 312 314 316 316 316 315 316 316 315 313 311 309 310 311 310 310 309 309 310 311 310 310 310 310 310 312 312 313 317 316 311 311 312 312 314 316 316 316 316 315 314 313 313 313 313 314 315 315 315 314 312 312 312 310 308 308 309 308 307 306 304 304 305 306 306 306
Wind_Speed
4 4 4 4 4 4 4 4 4 4 4 5 5 5 5 6 6 5 5 4 4 3 3 2 3 4 4 5 6 6 6 7 8 10 9 7 7 3 3 4 4 4 4 4 4 4 3 2 3 4 3 2 2 2 1 4 3 2 2 3 2 1 2 2 3 3 3 6 6 4 2 3 1 3 1 3 4 5 4 5 4 1 1 2 5 7 9 9
5 4 4 4 4 4 5 5 5 5 5 5 5 5 5 5 5 5 5 4 4 3 3 4 4 4 6 6 7 8 7 8 9 9 9 7 3 4 7 6 6 6 7 6 4 2 2 2 2 3 2 1 1 1 0 2 3 2 2 3 0 3 4 3 3 5 3 4 5 3 3 3 3 3 2 4 4 5 4 7 8 6 5 5 7 7 7 7
5 5 5 5 5 5 5 5 5 5 5 5 6 6 6 5 6 6 5 5 4 4 4 4 5 5 6 7 8 8 8 9 7 5 6 2 5 8 8 6 5 6 7 8 6 2 2 2 2 2 3 2 1 1 0 1 2 1 3 3 3 4 4 4 4 5 4 4 2 2 2 3 3 3 4 6 8 6 0 5 5 5 7 7 8 5 3 3
5 6 6 6 6 6 6 6 6 6 6 6 6 6 6 6 6 6 6 5 5 5 5 5 5 6 6 7 8 8 10 9 4 2 2 4 8 8 7 4 3 5 7 9 8 5 2 2 1 1 4 2 2 1 0 2 2 1 3 2 6 3 3 5 4 5 4 3 1 1 1 3 1 3 6 6 9 2 7 6 2 2 4 5 5 3 2 2
5 6 6 6 7 7 7 7 7 7 7 7 7 7 7 7 7 7 6 6 6 6 5 6 6 6 7 7 7 8 9 5 1 1 2 5 6 6 4 1 5 7 9 9 9 7 2 1 1 2 4 2 2 2 1 3 3 2 1 4 5 1 1 5 4 4 3 1 1 2 2 2 1 5 6 6 7 1 5 3 2 3 3 3 2 0 2 2
6 6 7 7 7 8 8 8 8 8 8 7 7 7 7 7 7 7 7 7 6 6 6 6 7 7 7 7 8 7 7 4 2 1 3 4 4 4 4 6 8 9 10 9 7 5 2 1 3 3 3 2 1 1 3 2 3 2 2 4 2 1 1 5 4 2 1 2 3 3 2 2 5 7 4 4 3 0 1 3 1 1 2 1 0 1 1 1
8 8 8 8 8 8 8 9 9 9 9 8 8 8 8 8 8 8 7 7 6 7 7 7 7 7 7 8 8 6 6 6 4 4 4 5 6 6 9 10 11 11 9 7 4 3 1 2 3 2 3 2 1 0 2 0 3 4 0 4 2 0 1 3 4 3 4 5 4 3 3 6 8 5 3 3 2 4 4 3 1 1 2 2 1 1 1 0
10 10 9 9 9 9 9 10 10 10 10 10 9 9 9 9 9 8 8 8 7 8 8 7 8 7 8 8 7 6 7 7 6 7 8 9 10 11 12 11 12 10 7 4 2 2 2 3 3 2 4 1 1 0 1 2 4 4 1 3 2 2 3 3 4 5 7 7 6 5 7 9 8 3 4 4 3 5 4 1 1 2 3 2 1 1 1 1
12 12 11 11 10 10 11 11 11 12 11 11 11 10 10 10 10 9 9 9 8 9 8 8 8 8 8 7 5 6 6 6 6 7 7 9 11 12 13 12 11 9 7 5 2 2 2 2 2 2 3 2 1 1 0 4 2 0 2 1 2 3 4 4 6 7 8 7 6 7 9 8 5 4 4 5 4 6 4 2 1 3 1 1 2 2 2 2
14 14 13 13 12 12 12 12 12 12 12 12 12 11 11 11 11 10 10 10 9 10 9 9 9 8 8 6 4 5 4 6 6 5 6 8 8 10 11 11 11 8 6 5 3 2 2 2 2 2 4 1 1 0 0 3 2 2 2 4 6 6 5 6 7 7 6 7 8 9 9 4 7 6 4 6 7 6 5 3 2 2 2 4 4 3 3 2
16 15 15 14 14 13 12 13 13 13 13 13 12 12 12 12 12 11 11 11 10 10 10 10 9 9 8 5 7 7 5 7 7 6 7 7 6 7 7 8 8 7 5 4 4 4 4 4 2 2 3 1 2 2 1 2 2 2 4 7 8 8 8 9 9 7 5 5 8 9 7 4 7 6 3 8 9 7 6 4 3 4 4 5 4 3 3 2
17 17 16 16 15 14 13 13 13 13 13 13 13 13 13 12 12 12 12 12 11 11 11 10 10 8 7 7 11 13 11 12 12 10 9 8 8 7 6 6 6 5 4 3 5 5 5 4 4 3 2 1 1 2 1 1 1 3 4 7 7 8 9 9 6 4 5 4 5 7 5 6 10 6 7 9 10 8 7 5 4 4 4 4 3 3 3 2
18 17 17 17 17 15 14 14 14 13 13 13 13 13 13 13 13 13 12 12 12 11 11 10 9 8 8 8 13 15 14 15 15 14 13 11 10 9 8 8 6 6 4 5 6 6 6 5 5 3 2 4 3 0 1 2 2 4 5 5 6 8 7 7 6 4 5 4 7 6 4 6 10 8 9 9 10 10 8 6 5 4 3 3 3 3 4 3
19 18 18 18 17 16 15 14 14 13 13 13 13 13 13 13 13 13 13 12 12 11 10 10 9 7 8 9 14 16 16 15 14 14 14 13 13 11 10 10 8 8 7 7 7 6 7 5 4 4 4 4 1 1 3 4 4 4 4 4 5 6 2 7 6 5 5 5 9 7 5 3 8 9 8 9 11 10 8 7 6 4 3 4 4 3 3 4
19 18 18 17 17 16 15 14 13 14 13 13 13 13 12 13 13 13 12 12 11 11 10 9 8 7 8 11 14 16 16 15 16 17 15 14 13 11 12 12 11 10 8 8 8 7 7 5 4 4 2 2 3 3 5 5 5 4 4 5 5 4 2 7 6 4 3 4 9 8 5 1 8 9 8 9 11 10 8 7 6 5 5 4 4 3 3 4
18 18 17 17 17 16 15 14 13 14 14 13 13 13 13 13 12 12 13 12 11 10 9 8 8 7 6 9 13 14 15 15 16 16 15 16 14 12 13 12 9 9 8 8 8 7 6 5 4 3 3 3 5 4 5 5 5 5 5 6 5 5 4 4 4 3 2 4 9 9 6 2 6 10 8 9 10 11 9 7 6 5 5 5 4 4 3 2
17 17 17 17 17 17 15 14 13 14 15 13 12 12 12 12 12 12 12 11 11 9 8 6 6 8 9 10 12 13 16 17 15 14 14 15 15 13 11 8 8 8 7 7 7 6 6 5 4 4 5 5 5 4 5 5 5 5 5 5 7 7 6 4 3 5 5 5 7 9 9 7 5 12 10 9 10 10 10 8 7 6 5 5 5 4 4 3
17 17 17 17 18 17 16 14 14 15 14 13 12 12 12 12 12 11 11 11 9 7 7 8 5 4 9 14 13 12 15 15 13 14 13 13 14 12 10 8 8 8 7 6 6 7 6 5 4 4 5 6 6 6 6 7 7 6 5 4 6 6 7 7 3 5 7 6 7 8 10 11 5 12 11 10 11 10 10 8 8 7 6 6 5 5 5 4
18 18 18 18 18 18 17 15 15 15 14 12 12 10 10 9 9 10 12 11 10 6 3 9 14 5 3 9 14 14 13 11 10 13 13 13 13 12 10 9 8 9 8 5 6 9 7 5 4 5 6 8 9 10 10 11 8 8 6 6 7 6 6 6 2 5 4 5 8 10 11 12 8 10 11 11 11 10 9 8 8 7 7 6 6 5 6 5
18 18 19 19 19 18 18 17 15 15 13 12 11 8 7 6 5 7 11 16 19 16 9 7 15 12 4 3 9 12 10 9 10 12 15 14 13 11 9 8 8 8 8 6 6 7 7 6 6 8 10 11 12 14 14 10 5 5 6 7 9 8 8 6 4 6 2 4 8 11 12 14 13 8 11 12 11 10 10 10 9 9 8 7 7 6 6 7
18 18 19 19 19 18 18 17 15 15 14 12 11 8 5 5 5 3 5 14 20 22 21 16 14 15 11 7 8 9 8 8 10 13 15 14 14 12 10 11 8 7 8 7 4 4 5 8 9 13 14 11 9 12 13 9 5 7 8 8 8 8 9 6 4 6 4 3 8 11 13 13 14 10 10 13 11 11 12 11 10 10 8 7 7 7 7 8
20 19 17 18 18 18 18 17 16 16 14 12 12 12 9 8 9 6 4 9 14 17 21 22 21 21 18 15 13 11 9 8 10 15 16 16 17 12 11 12 9 7 8 7 3 3 6 9 13 15 10 4 3 5 9 9 8 8 6 6 7 6 8 5 5 6 4 4 6 8 11 11 13 10 11 13 11 10 10 9 8 9 9 8 7 7 8 8
21 20 17 17 17 17 18 16 15 15 14 13 13 14 13 10 11 10 8 8 12 17 21 22 25 25 21 20 20 16 14 11 11 16 20 19 17 14 12 12 11 9 9 10 8 7 7 8 12 13 6 4 5 5 7 8 7 8 6 6 7 6 7 5 3 5 4 5 5 6 8 10 12 8 9 10 10 8 7 6 5 7 7 7 8 8 8 9
20 20 18 16 16 17 16 12 13 14 14 14 13 14 13 10 8 6 6 8 11 14 21 23 24 25 23 22 23 21 18 16 13 16 23 23 17 13 13 12 12 10 9 13 14 13 10 2 3 8 8 8 9 7 8 7 6 8 9 8 8 8 8 7 1 2 5 7 6 6 8 9 12 13 9 7 6 6 6 7 7 8 8 7 10 10 9 9
19 18 17 16 16 15 11 11 15 16 15 15 13 13 14 10 6 2 3 7 10 9 13 18 20 23 25 23 22 19 15 18 17 15 23 26 19 12 10 11 11 10 12 15 13 15 13 2 5 7 7 8 10 8 9 8 6 8 10 12 12 11 10 10 4 1 6 7 6 5 7 5 6 12 10 7 6 7 8 10 10 10 10 9 10 11 12 13
20 17 15 16 16 13 12 14 18 17 15 15 11 10 14 11 6 1 1 4 9 5 7 11 13 14 19 22 21 15 8 14 18 17 21 26 24 14 7 8 8 8 10 11 9 7 4 4 5 7 7 8 9 8 9 9 7 7 4 7 11 11 10 11 7 3 5 5 3 5 7 5 3 6 7 8 7 8 8 10 11 12 11 11 11 10 13 16
22 19 16 15 15 16 18 17 17 16 14 15 11 11 14 13 8 4 2 5 8 6 10 10 10 10 12 18 26 18 2 8 17 18 23 27 25 17 9 8 6 5 4 4 6 3 5 7 5 7 7 8 8 8 9 10 8 5 2 0 5 7 9 9 8 6 6 5 1 5 6 7 7 4 6 7 7 8 9 10 11 13 13 13 12 12 14 17
25 23 20 18 16 19 21 17 15 15 14 11 10 13 16 15 12 8 2 6 3 6 8 7 8 11 12 17 28 18 4 11 12 12 25 29 23 14 11 12 9 9 9 7 7 2 5 9 9 10 9 8 8 6 7 11 8 2 3 2 1 2 6 7 7 7 6 6 5 7 6 5 8 3 6 6 6 8 11 12 13 15 16 15 14 14 17 19
27 26 25 23 18 18 21 19 15 14 12 9 8 13 19 18 12 6 2 5 2 5 5 8 9 10 14 18 21 12 5 5 2 8 22 24 21 11 6 11 11 10 13 13 10 1 2 4 6 9 10 7 4 3 2 8 6 3 6 4 4 1 1 3 6 5 5 7 8 8 9 6 8 4 6 4 5 9 10 11 13 16 17 16 16 17 18 21
28 28 28 27 24 22 23 24 21 15 13 10 8 16 23 18 8 3 6 4 3 1 6 9 10 11 17 16 10 8 6 2 4 12 14 11 15 9 1 5 7 6 8 11 10 1 3 2 1 4 4 2 6 7 6 1 4 8 7 4 4 3 2 3 4 3 5 9 9 11 13 10 7 4 6 4 3 6 7 9 11 15 17 17 17 18 20 24
31 30 29 30 31 28 28 31 30 22 17 13 13 23 24 10 3 5 8 1 4 1 7 7 8 13 19 16 9 10 10 4 9 14 9 6 10 8 4 6 4 4 5 7 8 5 4 3 1 3 3 5 7 5 4 3 5 7 5 4 4 3 3 3 4 4 7 8 5 6 10 12 8 4 4 5 4 4 7 10 13 16 18 19 18 19 22 26
33 31 30 33 35 33 32 35 33 26 20 16 21 28 18 3 1 6 4 3 1 5 9 8 9 12 17 16 11 12 11 7 11 13 9 8 8 9 10 9 7 6 6 8 7 5 6 8 6 5 4 7 7 4 3 2 4 6 6 6 5 4 4 5 5 6 8 5 2 3 4 8 9 8 5 3 7 6 4 6 15 19 20 21 20 19 22 27
33 33 32 33 36 38 37 33 31 28 22 22 26 23 9 3 7 9 8 5 1 1 5 8 11 13 16 15 10 11 10 7 11 11 9 10 8 10 13 12 12 8 5 7 8 5 4 6 9 7 4 10 12 8 6 4 7 9 8 8 7 6 6 7 6 6 7 3 2 2 3 4 6 7 6 2 7 7 6 5 14 21 21 22 21 20 23 28
31 32 34 34 35 38 37 34 35 32 25 27 24 15 7 7 9 10 12 11 4 2 4 7 11 12 14 12 7 11 9 5 12 11 8 10 8 9 12 13 17 11 3 5 6 7 6 4 10 11 6 14 16 12 9 6 8 11 9 8 8 7 7 8 6 6 5 2 1 3 4 5 4 2 2 4 7 6 6 7 12 18 20 21 21 22 26 30
29 30 32 36 38 38 37 36 38 35 32 31 18 8 10 10 9 10 11 10 6 3 3 6 10 10 11 8 5 10 7 3 11 10 6 10 9 9 11 12 17 14 7 7 5 7 10 6 7 8 6 16 17 11 9 7 7 8 7 9 9 6 5 5 1 1 1 0 2 5 4 4 3 3 4 6 6 7 7 8 14 18 19 21 21 24 30 33
29 31 33 37 41 42 41 39 38 37 38 30 10 6 12 10 5 5 7 11 11 7 7 7 8 8 9 7 6 10 4 1 11 9 6 10 9 11 11 9 15 16 11 8 3 4 8 3 5 5 3 10 9 6 8 5 3 6 7 8 4 1 2 3 2 2 0 6 4 6 5 4 2 3 4 7 6 7 7 9 14 17 19 22 21 25 32 35
30 34 37 42 43 43 45 44 40 40 40 27 9 7 10 8 4 2 5 11 13 11 9 7 7 8 10 8 7 11 7 4 10 9 6 8 8 12 14 9 14 20 18 12 3 3 5 2 3 5 4 3 2 1 4 1 1 4 6 6 4 3 2 3 4 2 3 8 5 6 8 7 6 4 4 7 8 8 8 10 13 16 19 21 21 26 34 37
29 32 36 42 43 43 47 47 43 43 36 19 11 11 8 9 10 7 6 9 12 13 10 9 9 9 10 9 7 13 11 7 10 8 7 7 6 11 15 10 12 21 23 14 2 2 5 3 2 3 2 4 3 1 4 2 1 1 1 3 4 3 5 5 5 5 6 8 5 6 9 8 8 5 5 9 11 11 11 11 12 15 19 21 22 26 33 36
27 25 26 36 40 40 45 48 48 44 27 11 11 12 8 9 12 12 12 11 11 13 12 12 11 9 10 11 8 12 13 10 11 9 7 7 5 12 18 12 11 18 23 16 3 2 6 5 3 0 1 5 5 5 8 7 4 1 2 3 3 2 4 6 6 5 5 7 6 5 7 7 8 8 10 13 13 14 14 12 12 16 21 24 24 28 36 39
24 16 18 31 35 34 43 49 46 33 14 7 11 8 4 8 13 15 16 14 10 9 11 13 13 12 12 13 11 10 11 10 11 9 8 9 7 9 15 14 9 14 20 18 8 2 4 4 3 1 2 5 6 8 11 11 10 7 6 7 6 3 1 3 5 5 4 6 6 6 6 4 4 6 10 13 13 15 16 14 13 17 22 24 25 32 41 43
23 11 13 26 28 32 45 42 27 15 6 7 11 8 6 6 8 12 14 12 8 6 6 7 10 11 11 13 13 9 9 9 10 9 7 10 10 6 12 17 13 11 13 11 9 7 5 4 5 4 4 7 5 4 6 6 7 9 9 10 10 8 5 4 6 5 3 4 4 5 8 4 2 1 1 3 6 10 15 15 13 17 24 26 28 36 43 45
21 9 9 16 19 33 44 26 9 9 6 9 13 9 8 5 4 10 12 12 10 6 4 4 6 9 8 11 13 9 8 7 9 10 8 9 13 8 11 19 17 16 12 6 7 8 3 2 4 4 4 5 2 2 1 1 2 5 7 8 9 8 8 8 7 4 3 3 0 2 6 3 2 3 4 4 4 4 9 13 13 16 22 26 28 31 37 43
18 12 11 11 15 33 37 13 5 10 5 9 13 9 10 9 7 10 12 12 10 6 5 4 4 6 6 6 9 9 9 8 9 13 11 9 10 4 5 14 16 15 10 3 3 5 3 1 5 3 1 1 2 2 1 1 2 5 7 6 7 9 9 6 3 2 4 5 3 3 7 3 2 3 4 4 3 4 5 9 11 13 17 22 24 25 31 39
14 14 14 15 22 34 28 8 6 11 7 10 13 12 14 11 10 13 12 13 12 7 7 7 5 6 5 2 4 7 10 10 10 13 11 8 6 1 2 12 16 13 8 2 4 10 8 4 5 4 3 4 4 5 5 4 5 6 7 7 8 7 6 3 0 1 5 8 8 7 9 3 3 1 2 2 2 2 4 7 10 11 14 19 21 23 29 36
9 9 13 22 35 38 25 11 10 10 9 12 13 15 15 9 13 20 16 13 13 10 8 8 6 6 4 1 0 4 7 9 8 7 6 4 3 2 2 9 15 12 6 2 2 10 8 4 7 9 9 11 9 7 7 7 5 4 7 11 13 12 11 6 3 6 9 7 9 10 9 1 3 2 2 2 3 3 4 7 9 10 13 18 22 26 31 35
6 5 6 14 28 30 19 13 12 9 9 12 10 11 15 12 11 18 19 14 14 14 10 5 3 4 4 4 5 7 8 7 3 1 3 4 3 2 2 4 8 7 2 3 2 7 2 1 9 13 13 11 5 2 5 10 9 10 14 15 15 17 16 9 7 10 8 4 7 12 9 3 4 5 5 5 6 5 5 8 10 10 14 19 24 28 31 33
6 3 5 6 11 14 10 8 9 9 11 14 8 6 17 19 11 11 18 16 14 17 12 3 4 7 7 10 11 10 9 7 2 2 6 4 2 2 2 1 3 3 0 1 4 5 1 5 13 16 17 10 3 3 7 14 13 16 18 17 16 16 16 14 14 11 6 5 9 9 9 9 8 8 8 8 8 6 6 9 11 13 17 19 21 25 28 30
10 4 9 9 5 4 6 7 8 10 13 14 8 5 14 20 14 10 15 14 13 16 11 5 10 15 13 12 11 8 8 8 6 8 7 3 3 2 1 0 2 3 1 2 3 3 2 8 12 12 16 12 3 3 6 10 13 14 16 18 17 17 19 20 18 12 9 10 9 5 11 14 9 9 10 9 9 8 7 8 11 14 18 19 19 21 25 28
12 5 8 12 6 3 7 9 8 8 11 11 9 9 12 17 18 14 10 7 9 14 14 12 16 18 16 13 10 7 8 9 9 9 7 4 4 4 2 2 3 3 2 3 2 2 2 7 7 5 11 13 3 2 4 5 8 12 15 17 17 20 23 23 20 15 13 14 9 4 9 11 7 9 10 8 8 7 6 7 10 13 16 18 19 20 23 27
11 6 6 8 5 2 6 8 7 6 7 7 8 10 11 15 18 15 9 7 9 11 15 19 20 16 15 14 12 11 11 11 9 8 8 7 5 5 4 3 3 2 3 3 2 2 3 5 4 1 6 10 4 1 2 3 4 6 9 12 16 19 20 19 17 15 14 14 10 5 6 8 6 8 8 7 7 6 6 8 10 12 15 19 20 21 23 26
15 10 7 7 4 5 6 5 5 5 5 5 5 7 10 14 16 12 6 5 8 7 11 19 21 13 10 13 16 17 17 13 8 5 8 10 8 6 5 4 6 5 5 5 4 4 5 3 1 3 7 9 4 4 4 2 4 4 7 11 16 15 12 13 13 13 14 15 10 7 9 8 5 7 6 6 7 6 7 9 10 13 17 20 22 23 23 24
20 14 11 8 5 7 7 3 4 6 5 5 7 6 7 10 9 8 4 2 4 4 4 11 14 9 7 12 17 18 15 11 6 4 7 8 6 6 5 6 7 6 7 7 5 4 7 5 3 5 8 6 2 4 5 2 1 6 9 12 15 12 10 11 12 13 16 14 10 9 10 5 7 7 6 5 5 7 10 12 15 17 18 21 23 24 23 21
Wind_Direction
176 179 180 179 180 182 186 190 193 191 191 189 186 185 184 183 180 182 188 196 206 221 243 270 299 309 319 327 328 325 320 320 323 323 315 301 297 278 165 134 106 77 55 36 26 16 6 356 343 351 352 351 36 31 22 28 6 266 248 242 237 179 127 122 148 111 109 121 122 112 42 313 249 125 75 300 219 227 259 126 119 142 176 286 307 297 292 295
189 193 194 197 198 197 200 201 202 203 202 200 201 200 199 199 198 203 209 218 230 247 264 284 298 307 318 324 326 326 321 322 326 318 307 301 273 167 146 127 100 72 51 38 24 355 321 306 316 336 312 268 43 32 50 8 326 297 285 245 6 66 78 55 82 86 84 112 114 105 51 325 323 21 356 298 240 240 251 144 135 110 79 353 325 311 306 312
208 207 207 210 212 214 215 212 213 215 214 214 217 217 215 215 216 220 224 231 242 255 269 281 291 303 314 322 325 326 324 323 323 301 303 300 162 155 146 131 94 56 40 29 16 337 291 282 281 310 284 256 75 45 216 340 310 335 291 261 83 80 90 80 89 83 66 78 100 109 60 307 310 341 319 313 296 270 15 99 138 103 56 0 331 327 337 343
228 225 221 220 221 225 225 223 222 222 224 225 226 227 228 229 230 233 236 242 249 258 268 276 288 301 311 321 324 328 323 312 290 260 281 150 158 156 151 137 41 16 13 10 6 355 322 259 281 302 263 234 124 223 253 22 331 323 303 4 84 107 127 111 98 84 72 50 7 57 326 269 250 315 306 309 296 254 87 47 350 356 3 330 320 335 36 59
246 247 242 236 232 234 234 234 233 231 231 231 233 236 238 240 242 243 246 248 253 262 272 280 292 304 312 320 320 329 321 303 113 122 165 155 165 162 171 265 325 336 347 352 357 355 354 225 258 247 251 228 158 221 110 55 316 278 30 56 87 110 132 124 112 90 78 17 322 256 264 275 274 283 283 288 294 57 79 5 304 284 278 284 299 6 80 81
251 256 258 257 251 247 245 242 241 239 240 240 241 243 245 249 250 253 255 256 260 268 277 287 297 304 311 316 317 324 311 303 33 166 184 172 190 196 243 283 304 315 331 341 352 348 352 231 246 236 256 251 220 268 81 74 297 277 110 94 97 27 70 127 140 143 138 240 239 241 271 312 279 265 250 267 295 17 329 312 321 255 220 196 188 123 78 109
257 258 261 265 264 260 255 251 248 245 245 245 247 249 252 254 256 260 263 265 269 275 282 291 297 303 308 312 317 316 288 288 297 258 242 238 235 248 268 281 294 303 320 336 344 326 295 244 254 252 265 254 233 12 72 113 261 282 138 123 121 87 217 145 160 197 198 221 233 242 276 265 259 255 210 206 225 247 269 290 302 93 117 117 98 65 331 280
263 263 265 268 271 269 263 258 254 252 248 247 248 249 252 255 258 262 267 272 276 279 285 290 294 301 303 307 317 302 266 259 270 265 258 257 256 261 269 276 284 293 306 310 297 280 247 248 264 260 267 293 9 129 66 270 229 256 314 117 146 200 214 196 196 218 215 226 234 233 251 250 243 237 206 178 183 236 244 235 169 87 84 94 63 317 301 316
265 266 267 269 273 274 270 265 258 256 254 250 249 248 251 254 257 262 266 272 276 281 285 287 292 296 297 302 307 290 259 244 267 272 262 260 260 261 266 271 276 285 295 292 273 245 236 256 251 264 303 11 323 289 70 270 234 62 359 93 222 226 217 227 237 236 224 226 220 221 242 236 206 203 204 166 185 216 195 178 143 103 92 285 279 276 281 293
266 266 267 269 272 275 274 268 262 259 258 255 253 250 250 252 257 261 264 269 272 278 282 284 289 287 291 293 271 270 252 250 275 279 268 268 262 261 262 262 269 276 281 283 264 218 233 248 208 246 295 303 240 259 194 272 352 28 324 288 266 257 243 230 240 242 229 228 214 226 252 208 165 208 208 159 191 199 156 162 174 156 225 257 255 253 255 261
266 266 267 268 271 274 273 269 264 260 259 257 256 254 253 253 256 259 262 266 268 274 278 280 282 281 283 275 251 256 254 260 279 282 273 273 265 259 255 254 259 258 256 267 248 212 225 229 204 245 269 208 173 169 216 273 348 340 312 291 259 247 246 229 233 235 220 228 214 225 252 164 163 215 168 147 181 176 151 164 183 203 230 244 251 254 254 251
263 264 266 267 269 272 270 267 263 260 259 257 256 256 255 255 255 258 260 263 265 268 271 272 275 273 274 262 249 253 259 265 276 277 269 265 260 254 251 248 244 242 233 243 249 229 224 209 194 244 290 314 249 179 172 170 287 301 287 290 274 254 247 221 207 209 208 207 184 204 236 201 194 188 131 149 172 160 162 172 165 198 232 246 266 288 294 302
261 261 263 265 267 268 265 262 260 259 258 257 257 256 256 256 256 257 258 260 262 264 266 267 268 267 263 255 252 256 263 267 271 270 261 256 255 250 247 244 234 234 218 217 241 230 216 200 191 227 270 286 279 196 123 153 224 276 250 269 293 274 240 175 150 167 192 169 163 194 254 214 185 153 131 154 167 163 174 177 170 186 213 243 254 273 291 302
259 259 260 262 263 262 259 257 258 258 258 258 257 255 255 255 255 256 257 259 260 262 264 262 262 259 250 254 259 261 264 266 265 260 254 249 248 248 246 242 238 242 241 234 234 220 214 201 198 227 237 259 260 175 241 209 217 260 254 236 258 271 200 137 146 178 183 158 168 206 273 219 154 138 142 163 168 173 183 177 177 179 181 228 238 239 265 273
258 259 258 259 259 257 255 253 255 258 258 257 255 254 251 249 251 252 254 256 258 260 260 258 255 247 250 258 261 263 263 258 255 252 248 244 242 244 245 246 249 249 244 234 221 212 213 195 209 231 183 191 195 217 249 236 222 230 253 248 224 241 178 143 156 199 203 158 179 210 270 199 147 144 149 167 178 183 193 183 177 185 188 212 222 219 242 256
255 256 256 257 256 254 254 252 253 255 255 254 252 250 247 246 246 246 250 253 256 257 255 255 245 234 253 257 252 260 259 248 247 248 244 240 235 235 244 248 248 242 231 221 215 210 206 188 211 221 161 192 212 230 254 252 241 215 230 262 247 243 235 167 152 201 212 163 188 210 260 292 142 151 153 163 179 187 200 194 180 191 193 198 208 215 222 237
253 253 254 254 254 255 254 253 253 252 252 252 249 249 247 245 244 245 249 249 252 250 241 241 237 238 249 249 249 255 252 246 244 243 239 237 233 233 239 232 220 221 210 205 204 194 188 178 193 210 211 229 225 226 245 248 247 220 211 248 260 255 251 230 152 158 178 196 215 215 243 271 149 150 165 168 176 190 201 197 187 189 190 196 202 209 207 196
251 250 250 251 253 256 256 255 254 251 251 250 247 246 245 245 247 247 248 246 243 241 241 221 196 246 246 232 232 237 245 247 240 237 234 229 227 221 214 206 196 182 177 188 189 182 186 184 200 231 224 221 219 213 221 237 259 268 244 251 266 246 236 249 211 153 175 202 240 234 240 257 190 154 168 173 178 196 201 191 188 186 187 195 193 199 203 198
250 249 248 249 251 254 256 254 252 251 250 246 242 240 243 247 253 254 248 235 211 196 242 207 195 220 266 214 218 227 241 245 229 226 223 218 215 201 192 192 180 174 181 186 181 186 194 188 199 233 230 216 214 211 222 244 272 295 285 281 282 261 249 258 146 132 182 219 247 251 253 261 235 173 169 174 181 197 198 185 186 187 188 192 187 195 197 197
250 249 246 246 247 250 254 253 252 251 245 242 236 225 231 235 242 250 232 226 224 224 245 224 208 230 265 205 220 225 228 223 212 213 215 213 195 178 176 172 171 193 211 206 185 179 194 211 212 221 229 229 222 218 230 252 279 293 284 274 270 266 268 268 126 122 158 244 254 256 260 263 259 217 172 172 181 194 197 189 192 190 188 192 189 189 190 202
252 249 246 245 245 246 249 251 250 247 240 236 225 203 207 228 228 232 214 236 246 242 245 244 227 233 238 231 230 220 201 198 203 206 209 199 178 170 174 174 181 208 214 208 178 141 190 224 227 229 238 245 240 225 230 247 258 261 266 265 259 254 265 264 133 130 148 236 261 264 262 259 264 250 173 167 185 199 202 197 199 194 186 191 189 186 190 205
252 249 243 241 241 242 246 246 245 243 235 227 217 205 210 227 230 242 271 267 264 253 246 243 237 239 239 236 234 223 203 189 194 206 202 183 179 185 178 180 204 211 188 182 169 176 215 230 233 237 241 233 231 225 231 243 250 253 251 252 257 254 267 255 142 139 165 235 265 270 267 261 265 250 175 178 196 194 195 194 192 189 187 192 189 186 191 198
250 247 241 235 233 235 239 243 244 242 235 225 218 214 218 231 235 246 270 278 272 254 242 240 239 238 232 231 232 221 210 205 200 204 198 181 183 197 184 183 213 212 181 188 207 220 225 235 235 232 214 187 213 217 224 239 242 241 236 241 250 246 260 256 155 142 185 230 278 288 275 268 265 237 172 183 192 169 169 181 182 187 188 190 189 186 185 187
247 244 240 233 228 230 232 235 237 237 237 232 225 217 219 227 229 245 265 273 274 246 236 241 238 232 224 227 232 219 212 223 217 202 199 187 177 191 197 199 214 215 201 205 215 229 237 248 201 204 197 213 228 213 210 229 236 230 228 234 248 247 249 255 234 136 216 229 238 264 276 268 251 230 196 162 164 167 173 185 194 196 194 191 195 192 182 179
242 239 235 228 224 224 218 215 222 227 235 238 232 216 211 207 197 243 302 274 265 229 228 236 231 231 224 221 226 212 211 230 223 208 203 193 180 179 195 205 215 221 215 212 219 238 241 168 129 183 192 211 224 219 206 215 242 240 225 224 240 257 261 263 278 328 277 258 196 212 269 276 238 226 202 148 165 192 181 191 199 193 192 194 199 195 188 182
237 233 224 220 218 207 198 212 222 227 236 239 232 207 203 196 181 205 36 287 268 205 179 208 211 221 215 207 200 185 215 230 209 207 205 195 190 185 184 192 207 234 222 213 228 251 228 137 147 176 177 197 217 230 210 203 239 257 237 217 231 254 263 263 264 241 272 286 147 188 258 278 259 221 176 146 178 190 180 198 198 187 188 189 190 188 188 186
233 232 225 217 209 195 195 214 225 222 229 238 232 205 196 185 165 129 102 276 267 169 149 176 187 187 190 191 181 170 205 176 174 201 200 193 195 192 203 190 178 230 211 184 228 227 153 161 171 174 185 204 214 233 213 195 227 255 25 131 214 242 253 248 246 234 256 290 193 194 237 275 271 226 145 150 179 186 191 203 196 189 189 186 186 182 181 183
230 231 233 226 212 201 200 213 221 211 215 232 226 202 184 169 152 125 145 257 252 131 146 164 167 170 160 170 178 172 123 139 153 196 188 189 192 189 219 214 201 211 179 178 223 202 149 179 185 188 202 216 217 238 196 186 220 241 74 62 159 239 257 241 236 238 253 272 248 200 182 254 264 203 137 163 196 211 207 199 193 191 186 182 183 179 176 178
229 225 230 230 227 216 207 211 217 213 212 210 200 183 168 157 142 118 210 244 181 117 138 149 152 158 147 160 181 177 129 143 148 173 176 186 186 176 226 223 227 223 187 204 231 265 88 189 197 202 214 222 195 50 114 190 216 148 119 97 92 107 237 223 235 242 241 249 248 211 180 224 271 222 165 175 221 231 216 194 187 185 182 180 178 174 175 177
231 224 222 224 224 217 213 215 219 220 206 193 185 166 156 148 131 151 201 213 239 151 119 146 160 156 154 159 183 189 166 134 90 139 158 180 183 184 219 187 225 232 190 220 243 223 93 88 295 221 220 185 114 70 34 63 135 139 144 125 126 160 162 199 232 234 247 249 240 217 198 211 270 253 182 172 228 220 190 173 175 175 175 176 175 172 174 177
232 226 218 218 218 214 213 216 218 217 203 189 174 159 152 139 100 197 202 228 320 176 127 152 159 152 163 166 172 192 191 156 135 150 151 151 176 192 176 158 192 214 205 232 236 212 172 170 182 172 149 111 112 97 50 59 133 155 173 169 169 188 170 209 221 200 244 253 227 206 202 208 231 248 164 120 89 133 154 170 174 170 172 172 172 173 175 177
233 230 222 219 220 218 217 217 218 216 204 184 167 160 152 129 204 219 212 64 1 186 155 160 163 162 176 181 179 181 180 167 164 171 169 163 178 190 192 188 168 179 224 223 207 205 210 206 176 133 157 173 163 142 107 113 183 190 191 183 197 217 201 222 215 201 236 244 124 124 186 214 232 245 235 129 101 106 100 163 171 167 167 168 168 170 173 177
236 233 228 222 221 221 221 223 221 216 203 182 174 167 155 177 203 215 208 178 196 163 130 147 166 175 181 190 190 169 168 175 172 178 178 175 189 199 206 208 190 199 239 200 190 192 206 209 179 160 184 193 191 184 170 172 186 194 192 183 196 213 226 238 223 221 235 219 89 141 176 231 249 247 245 137 97 96 65 102 162 164 164 165 165 166 172 176
238 235 231 226 225 223 223 225 223 216 198 184 183 177 173 202 206 206 207 209 223 59 95 144 161 177 187 194 182 161 170 184 171 175 178 178 199 207 206 212 208 217 242 191 196 194 214 239 183 179 173 177 192 210 203 175 178 196 197 195 207 214 236 248 233 235 236 143 116 172 179 219 216 163 115 99 93 99 90 104 145 156 159 159 160 166 174 178
238 239 234 231 229 225 223 224 224 217 194 183 190 184 186 209 213 207 207 202 198 150 121 147 153 173 195 195 172 171 185 194 171 175 185 187 204 207 198 206 205 205 203 206 206 191 222 249 164 158 145 164 184 213 204 175 178 194 195 208 221 227 249 264 253 252 301 3 196 185 220 251 181 115 113 129 121 114 113 125 142 151 156 157 161 170 179 182
237 237 234 233 231 228 224 219 220 214 190 179 191 208 202 217 206 193 191 183 188 164 134 156 168 185 198 189 186 188 192 153 170 176 205 207 221 220 208 204 197 197 197 195 187 181 215 245 126 123 132 167 184 196 183 184 181 171 189 206 205 8 283 254 209 108 355 275 239 171 221 259 186 169 142 146 149 135 138 149 153 156 159 163 168 175 182 185
230 232 232 232 232 230 224 218 216 206 188 178 198 217 211 229 222 185 172 182 190 169 151 185 191 189 200 195 190 189 178 153 174 185 196 195 223 222 213 210 194 199 205 203 227 220 210 248 152 164 172 161 20 50 168 271 42 153 191 187 118 43 313 262 247 222 220 256 246 172 208 221 205 210 148 157 175 166 165 165 162 164 167 173 176 180 186 188
225 230 232 233 234 230 221 218 213 198 183 179 211 223 223 229 226 223 199 191 194 182 186 218 202 186 202 206 186 177 177 170 175 190 189 182 215 201 191 202 198 201 207 206 248 248 207 236 190 174 172 133 83 176 185 219 251 204 248 167 142 218 222 200 228 245 231 243 252 212 212 217 216 204 154 178 190 180 176 173 171 175 178 181 180 181 188 190
229 230 237 236 232 228 223 216 203 188 179 180 207 219 228 221 222 227 222 215 207 197 205 221 216 206 211 216 195 168 177 184 170 179 197 191 200 183 177 187 198 201 201 193 192 205 195 224 224 185 105 137 147 201 194 186 193 247 291 203 188 245 229 204 210 233 237 240 256 233 210 218 223 202 182 191 190 178 175 177 185 186 184 184 180 182 189 192
229 228 250 240 231 229 220 206 192 182 175 188 203 212 210 213 222 222 222 224 216 210 218 221 220 222 222 225 218 177 180 198 179 183 207 189 180 183 180 184 191 197 195 190 196 206 176 215 226 123 125 164 177 203 200 191 185 186 199 200 193 186 230 262 231 224 238 245 250 247 242 235 203 196 200 196 184 174 175 180 188 188 186 186 184 187 192 194
224 223 251 237 232 225 207 193 186 184 172 193 212 225 205 210 227 211 212 226 233 240 245 237 231 232 227 223 220 190 178 202 196 198 213 195 201 205 182 189 189 169 175 188 204 206 184 201 204 165 183 205 201 193 200 201 192 192 198 197 196 189 181 221 223 207 217 244 247 261 270 264 125 92 244 180 162 167 178 182 180 181 185 187 189 193 195 196
222 231 243 225 226 211 194 185 192 188 178 200 207 212 200 197 226 205 200 213 229 246 248 258 254 241 232 222 220 198 170 193 202 205 218 208 213 216 183 190 182 153 153 179 199 192 157 161 206 194 193 206 185 93 114 251 234 232 230 214 202 197 196 211 217 181 177 220 272 292 276 275 87 47 41 55 49 99 162 177 176 178 184 188 192 194 196 198
221 232 235 219 219 203 190 186 212 186 197 212 199 202 200 197 213 210 201 200 208 225 218 226 249 241 245 232 219 200 181 192 204 205 219 220 212 211 171 180 168 150 160 176 166 161 112 144 205 198 191 171 122 134 164 161 224 242 242 219 211 211 203 213 236 139 185 204 170 224 251 244 75 38 49 64 47 62 125 163 170 172 181 188 189 188 193 199
222 222 217 203 205 200 191 193 198 192 210 196 192 209 209 209 217 211 209 203 198 203 214 221 222 220 240 244 210 207 193 201 215 209 214 219 202 99 104 172 169 166 179 178 157 167 167 188 187 177 225 218 194 209 211 196 201 223 224 205 212 213 177 158 56 160 231 214 179 213 246 224 102 61 59 90 115 122 142 163 169 168 175 183 183 184 193 199
216 212 203 193 195 195 195 204 196 195 202 186 192 207 204 215 219 211 215 213 205 204 210 224 220 198 205 144 192 230 210 218 232 216 213 219 191 46 42 182 181 182 183 49 135 175 176 184 176 183 215 216 211 221 208 179 172 205 220 206 206 204 185 174 193 219 236 212 177 214 240 177 110 164 187 178 174 166 161 171 177 172 172 180 187 193 197 199
196 205 199 193 200 203 211 218 199 189 193 189 196 202 202 214 215 206 212 220 220 217 213 222 196 174 187 193 213 231 225 235 257 204 220 215 165 49 12 199 198 198 183 42 141 177 169 221 198 204 218 214 225 257 139 127 149 195 206 200 200 203 198 191 210 223 226 199 203 222 223 194 178 188 200 203 196 195 181 176 180 177 176 184 192 197 197 198
205 201 181 182 210 220 235 230 199 195 196 191 191 187 199 212 216 196 203 214 219 217 221 234 189 194 196 194 212 227 218 220 220 201 228 217 134 53 26 206 222 216 276 45 167 166 133 229 214 220 230 231 336 347 157 149 174 201 201 197 197 200 196 199 216 217 180 191 235 216 193 213 211 187 202 204 191 205 198 177 179 184 186 188 190 194 195 198
209 197 187 189 196 209 226 221 201 205 203 193 196 198 197 208 215 199 199 210 214 208 212 228 215 216 211 199 211 220 200 204 213 214 219 193 138 145 98 63 232 208 155 112 156 150 191 233 224 225 237 241 343 348 217 190 194 198 193 193 191 189 195 204 215 211 181 212 241 164 173 213 208 178 199 200 190 205 196 176 180 185 188 189 186 188 193 199
205 206 194 196 200 192 208 210 196 206 209 194 201 217 205 205 211 210 198 195 210 206 203 220 227 219 212 209 211 206 195 200 213 214 204 173 165 173 167 210 220 207 163 130 144 142 181 240 241 236 247 245 235 4 297 255 223 205 196 192 186 190 200 205 211 213 209 228 243 161 184 220 204 181 194 187 187 196 172 172 183 183 188 191 190 191 195 201
206 209 187 185 206 199 188 191 179 198 217 201 204 217 213 212 213 212 196 182 207 208 200 218 229 217 209 216 216 218 215 208 216 214 183 171 183 188 197 199 163 163 174 154 156 166 180 228 229 155 253 250 229 171 308 315 276 227 206 199 195 198 202 204 211 214 217 236 241 206 225 239 196 175 174 163 172 178 172 188 194 194 198 196 194 198 202 206
227 224 195 177 199 190 180 181 170 191 214 206 210 214 215 223 218 208 198 197 215 212 199 218 229 221 211 216 218 227 227 214 222 219 179 186 197 191 199 183 145 155 182 174 164 171 186 213 123 146 230 237 213 197 206 32 9 295 253 224 209 202 194 198 210 209 211 224 223 218 245 241 172 145 151 163 175 184 195 198 193 198 203 200 201 205 208 209
231 231 213 196 201 188 184 180 170 194 207 194 200 204 212 228 219 199 205 203 197 209 215 226 228 216 209 217 222 229 222 194 174 142 152 170 159 136 142 144 143 163 177 175 174 174 187 196 168 187 217 230 220 193 174 97 342 251 250 230 209 194 182 195 212 214 211 213 209 219 238 219 147 145 158 172 185 201 211 206 199 200 200 202 206 206 207 211